Hourly Data Report for December 22, 2006

TORONTO CITY
ONTARIO

43°40'00.000" N
79°24'00.000" W
112.50 m
6158355
71508
XTO

Download Data

Hourly Data (December 2006)
Hourly Data Report for December 22, 2006
TIME
LST
Temp Definition
°C
Dew Point Definition
°C
Rel Hum Definition
%
Precip. Amount Definition
mm

Wind Dir Definition
10's deg

Wind Spd Definition
km/h
Visibility Definition
km
Stn Press Definition
kPa
Hmdx Definition


Wind Chill Definition


Weather Definition


00:00 3.9 -0.8 71   LegendMM LegendMM   101.35     LegendNANA
01:00 3.7 0.3 78   LegendMM LegendMM   101.29     LegendNANA
02:00 4.3 0.7 77   LegendMM LegendMM   101.26     LegendNANA
03:00 4.7 0.9 76   LegendMM LegendMM   101.20     LegendNANA
04:00 4.9 0.9 75   LegendMM LegendMM   101.16     LegendNANA
05:00 4.5 2.0 84   LegendMM LegendMM   101.14     LegendNANA
06:00 4.8 2.9 87   LegendMM LegendMM   101.05     LegendNANA
07:00 4.8 2.6 86   LegendMM LegendMM   101.04     LegendNANA
08:00 4.4 2.7 89   LegendMM LegendMM   100.94     LegendNANA
09:00 3.9 2.6 91   LegendMM LegendMM   100.88     LegendNANA
10:00 3.9 3.2 95   LegendMM LegendMM   100.81     LegendNANA
11:00 4.3 3.6 95   LegendMM LegendMM   100.73     LegendNANA
12:00 4.3 3.7 96   LegendMM LegendMM   100.59     LegendNANA
13:00 4.3 3.8 97   LegendMM LegendMM   100.43     LegendNANA
14:00 4.3 4.0 98   LegendMM LegendMM   100.30     LegendNANA
15:00 4.4 4.2 99   LegendMM LegendMM   100.19     LegendNANA
16:00 4.8 4.6 99   LegendMM LegendMM   100.12     LegendNANA
17:00 5.3 5.1 99   LegendMM LegendMM   100.08     LegendNANA
18:00 5.4 5.3 99   LegendMM LegendMM   100.01     LegendNANA
19:00 5.7 5.6 99   LegendMM LegendMM   99.90     LegendNANA
20:00 5.9 5.8 99   LegendMM LegendMM   99.82     LegendNANA
21:00 6.2 6.2 100   LegendMM LegendMM   99.72     LegendNANA
22:00 6.5 6.5 100   LegendMM LegendMM   99.62     LegendNANA
23:00 6.7 6.7 100   LegendMM LegendMM   99.51     LegendNANA

Notes on Data Quality.

Legend

  • E = Estimated
  • M = Missing
  • NA = Not Available*
  • [empty] = Indicates an unobserved value
Date modified: